Regional Weather Roundup
Issued by NWS Kansas City/Pleasant Hill, MO

Home | Current Version | Previous Version | Graphics & Text | Print | Product List | Glossary Off
Versions: 1 2 3 4 5 6 7 8 9 10 11 12 13 14 15 16 17 18 19 20 21 22 23 24 25 26 27 28 29 30 31 32 33 34 35 36 37 38 39 40 41 42 43 44 45 46 47 48 49 50

000
ASUS43 KEAX 260110
RWREAX

WEATHER ROUNDUP FOR EASTERN KANSAS AND NORTHWEST MISSOURI
NATIONAL WEATHER SERVICE KANSAS CITY/PLEASANT HILL MO
800 PM CDT SAT MAR 25 2017

KSZ040-057-103>105-MOZ028-029-037-043-260200-
...KANSAS CITY METROPOLITAN AREA...

CITY           SKY/WX    TMP DP  RH WIND       PRES   REMARKS
K.C. INTL      CLOUDY    47  45  93 NW12      29.88R
K.C. DOWNTOWN  CLOUDY    51  45  79 NW12      29.87R
LEES SUMMIT    CLOUDY    51  47  86 NW9       29.86R
OLATHE - IXD   CLOUDY    47  45  93 NW13      29.88R
OLATHE - OJC   CLOUDY    47  46  97 NW10      29.87R
LAWRENCE       CLOUDY    46  44  93 NW9       29.90R

$$

MOZ001>008-011>017-020>025-030>033-038>040-044>046-053-054-260200-
...NORTHERN AND CENTRAL MISSOURI...

CITY           SKY/WX    TMP DP  RH WIND       PRES   REMARKS
ST. JOSEPH     CLOUDY    45  45 100 N9        29.90R FOG
MOSBY          CLOUDY    50  45  81 NW9       29.86R
WARRENSBURG    DRIZZLE   52  50  93 CALM      29.84R
WHITEMAN AFB   LGT RAIN  54  54 100 NW7       29.82R
CLINTON        LGT RAIN  50  48  93 SW10      29.85S
SEDALIA        RAIN      53  52  96 SW14G21   29.82S FOG
WARSAW         NOT AVBL
CHILLICOTHE      N/A     49  47  93 N8        29.86S
KIRKSVILLE     CLOUDY    50  49  96 N9        29.83S FOG

$$

MOZ041-047>049-056>058-063>065-088>090-097-260200-
...EASTERN AND SOUTHERN MISSOURI...

CITY           SKY/WX    TMP DP  RH WIND       PRES   REMARKS
ST. LOUIS INTL CLOUDY    58  54  86 SE10      29.82R
SPIRIT OF STL  CLOUDY    57  55  93 SE6       29.81R
COLUMBIA       CLOUDY    55  54  96 CALM      29.78S
JEFFERSON CITY PTCLDY    60  54  80 S7        29.79R
ROLLA          CLOUDY    52  51  97 SW18G25   29.81R
OSAGE BEACH    LGT RAIN N/A N/A N/A SW16      29.85R
SPRINGFIELD    CLOUDY    48  44  86 W10       29.88S
BRANSON        CLOUDY    48  46  93 W7        29.90S
JOPLIN         CLOUDY    48  44  86 W10       29.92R
WEST PLAINS    CLOUDY    51  48  89 W10       29.90R

$$

IAZ060-094-KSZ022-034>040-054-083-096-NEZ052-066-093-260200-
...KANSAS...SOUTHEAST NEBRASKA AND IOWA...

CITY           SKY/WX    TMP DP  RH WIND       PRES   REMARKS
TOPEKA         CLOUDY    46  44  93 NW7       29.90R
MANHATTAN      CLOUDY    45  43  93 N3        29.93R
EMPORIA        CLOUDY    45  45 100 NW8       29.91R
CHANUTE        CLOUDY    47  45  93 NW9       29.91R
WICHITA        CLOUDY    46  41  82 NW8       29.93R
OMAHA          DRIZZLE   42  37  82 NE10      29.93F FOG
LINCOLN        LGT RAIN  41  39  93 N12       29.95S WCI  34
FALLS CITY     CLOUDY    43  41  93 N7        29.91R
LAMONI         CLOUDY    43  42  97 N6        29.88R
DES MOINES     CLOUDY    44  41  89 NE8       29.90R

$$




USA.gov is the U.S. government's official web portal to all federal, state and local government web resources and services.